STARLINK-3659, 52001

Orbit data source: Space-Track

STARLINK-3659, 52001 is a payload satellite owned by SpaceX/Seattle (US) in LEO that was launched on Wed, 09 Mar 2022 UTC via an FALCON 9 launch vehicle from the Air Force Eastern Test Range (AFETR). Payload-class satellites include a variety of spacecraft equipped with specific instruments for various scientific and technological missions. These include communications satellites like Starlink; space stations such as the ISS; scientific satellites like the Hubble; Earth observation satellites from companies like Planet Labs, Umbra, and HawkEye 360; GPS; miniature CubeSats for education and research; and military/defense satellites.

Loading next visibility...
Identifier
52001, 2022-025AX
Orbit
LEO
Country
Flag of USUS
Related business
Manufacturer
SpaceX/Seattle
Mission
Operational Commercial Communications
Bus & Motor
STARLINK, Unknown motor
Mass
297 kg wet, ~275 kg dry
Launch date (UTC)
2022-03-09 (4 years ago)
Launch vehicle
FALCON 9
Launch site
Air Force Eastern Test Range (AFETR)
Object type
Payload
Rocket body
Debris
Shape & HBR
Box + 1 Pan, 10.1 m
Radar Cross Section
13.562 m², Large (>1 m²)

Expand to show TLE details & history
Last TLE update: 1 day ago

TLE from 1 day ago
0 STARLINK-3659
1 52001U 22025AX  25346.58971852 -.00000607  00000-0 -20051-4 0  9991
2 52001  53.2162  50.1364 0001154  92.4344 267.6781 15.08821746207777
Epoch: 2025-12-12T14:09Z
TLE epoch observation values (Epoch: 2025-12-12T14:09:11.680Z)
Latitude
0.00005°
Longitude
116.30861°
Altitude
540.729 km
Speed
7.593 km/s
True Right ascension
03h 20m 32s
True Declination
0° 00' 00"
Sunlit
Object was in full shadow at epoch
Visualization orbit readout
Latitude
Unknown
Longitude
Unknown
Altitude
Unknown
Speed
Unknown
Apparent Right ascension
Unknown
Apparent Declination
Unknown
Sunlit
N/A
Visualization observer readout
Local Sidereal Time
13:07:09
Azimuth
Unknown
Elevation
Unknown
Doppler factor
Unknown
Orbital elements
Apogee altitude
540.843 km
Perigee altitude
539.246 km
Semi-major axis
6,918.181 km
Eccentricity
0.00012
Inclination
53.2162°
RAAN
50.1364°
Arg. of periapsis
92.4344°
True anomaly
267.66489°
Mean anomaly
267.6781°
Eccentric anomaly
267.67149°
Mean motion
3.77186 °/min
Orbital period
95.44 mins
BSTAR
-0.000020051
Loading maneuver chart data...
Computing Atmospheric mass density...
Loading historical data...
Loading historical data...
Loading historical data...
Loading historical data...
Loading historical data...
Loading historical data...
Loading historical data...

Documentation

Showing up to 5 results
|